Eelde, Netherlands

3:39 PM CEST on September 20, 2017 (GMT +0200)
Eelde

Weather History for EHGG - January, 2014

Change the Weather History Date:

Thursday, January 30, 2014

  Actual Average Record
Temperature  
Mean Temperature 27 °F -  
Max Temperature 32 °F 40 °F 53 °F (2002)
Min Temperature 22 °F 29 °F 22 °F (2014)
Degree Days  
Heating Degree Days 38    
Moisture  
Dew Point 23 °F    
Average Humidity 80    
Maximum Humidity 86    
Minimum Humidity 66    
Precipitation  
Precipitation 0.00 in 0.06 in - ()
Sea Level Pressure  
Sea Level Pressure 29.77 in    
Wind  
Wind Speed 10 mph ()    
Max Wind Speed 14 mph    
Max Gust Speed -    
Visibility 3.3 miles    
Events      
Averages and records for this station are not official NWS values.
T = Trace of Precipitation, MM = Missing Value Source: Averaged Metar Reports

Daily Weather History Graph

Daily Weather History Graph

Search for Another Location

Airport or City:

Trip Planner

Search our weather history database for the weather conditions in past years. The results will help you decide how hot, cold, wet, or windy it might be!

Date:

Astronomy

Jan. 30, 2014 Rise Set
Actual Time 8:20 AM CET 5:13 PM CET
Civil Twilight 7:42 AM CET 5:51 PM CET
Nautical Twilight 7:00 AM CET 6:33 PM CET
Astronomical Twilight 6:20 AM CET 7:14 PM CET
Moon 7:30 AM CET (1/30) 5:12 PM CET (1/30)
Length of Visible Light 10h 08m
Length of Day
8h 52m
Waning Crescent, 0% of the Moon is Illuminated
Jan 30
Waning Crescent
Jan 30
New
Feb 6
First Quarter
Feb 15
Full
Feb 22
Last Quarter

Hourly Weather History & Observations

Time (CET) Temp. Windchill Dew Point Humidity Pressure Visibility Wind Dir Wind Speed Gust Speed Precip Events Conditions
12:00 AM 26 °F - 21 °F 75% 29.75 in 4 mi East 11.2 mph - -   Mist
12:25 AM 26.6 °F 16.2 °F 21.2 °F 80% 29.74 in 3.7 mi East 11.5 mph - N/A   Overcast
12:55 AM 24.8 °F 13.4 °F 21.2 °F 86% 29.74 in 3.7 mi East 12.7 mph - N/A   Overcast
1:00 AM 25 °F - 21 °F 78% 29.74 in 4 mi East 13.4 mph - -   Mist
1:25 AM 24.8 °F 14.0 °F 21.2 °F 86% 29.74 in 3.7 mi East 11.5 mph - N/A   Overcast
1:55 AM 24.8 °F 14.0 °F 21.2 °F 86% 29.74 in 3.7 mi East 11.5 mph - N/A   Overcast
2:00 AM 26 °F - 22 °F 76% 29.75 in 4 mi East 13.4 mph - -   Mist
2:25 AM 24.8 °F 14.0 °F 21.2 °F 86% 29.74 in 3.1 mi East 11.5 mph - N/A   Overcast
2:55 AM 24.8 °F 14.0 °F 21.2 °F 86% 29.74 in 3.1 mi East 11.5 mph - N/A   Overcast
3:00 AM 26 °F - 22 °F 76% 29.76 in 3 mi East 13.4 mph - -   Mist
3:25 AM 24.8 °F 12.9 °F 21.2 °F 86% 29.74 in 3.1 mi East 13.8 mph - N/A   Overcast
3:55 AM 24.8 °F 13.4 °F 21.2 °F 86% 29.74 in 3.1 mi East 12.7 mph - N/A   Overcast
4:00 AM 25 °F - 21 °F 79% 29.76 in 3 mi East 11.2 mph - -   Mist
4:25 AM 24.8 °F 13.4 °F 21.2 °F 86% 29.74 in 3.1 mi East 12.7 mph - N/A   Overcast
4:55 AM 23.0 °F 12.4 °F 19.4 °F 86% 29.74 in 3.1 mi East 10.4 mph - N/A   Overcast
5:00 AM 23 °F - 20 °F 82% 29.77 in 3 mi East 8.9 mph - -   Mist
5:25 AM 23.0 °F 12.4 °F 19.4 °F 86% 29.74 in 3.1 mi East 10.4 mph - N/A   Mist
5:55 AM 23.0 °F 12.4 °F 19.4 °F 86% 29.74 in 3.1 mi East 10.4 mph - N/A   Partly Cloudy
6:00 AM 23 °F - 20 °F 81% 29.77 in 3 mi East 11.2 mph - -   Mist
6:25 AM 23.0 °F 12.4 °F 19.4 °F 86% 29.74 in 3.1 mi East 10.4 mph - N/A   Mist
6:55 AM 23.0 °F 12.4 °F 19.4 °F 86% 29.74 in 3.1 mi East 10.4 mph - N/A   Mist
7:00 AM 23 °F - 20 °F 81% 29.77 in 4 mi East 11.2 mph - -   Mist
7:25 AM 23.0 °F 11.7 °F 19.4 °F 86% 29.74 in 3.7 mi East 11.5 mph - N/A   Unknown
7:55 AM 23.0 °F 11.7 °F 19.4 °F 86% 29.77 in 3.7 mi East 11.5 mph - N/A   Unknown
8:00 AM 23 °F - 20 °F 81% 29.78 in 4 mi East 13.4 mph - -   Mist
8:25 AM 23.0 °F 11.7 °F 19.4 °F 86% 29.77 in 3.1 mi East 11.5 mph - N/A   Mist
8:55 AM 23.0 °F 11.7 °F 19.4 °F 86% 29.77 in 3.1 mi East 11.5 mph - N/A   Partly Cloudy
9:25 AM 24.8 °F 13.4 °F 21.2 °F 86% 29.77 in 3.1 mi East 12.7 mph - N/A   Overcast
9:55 AM 24.8 °F 13.4 °F 21.2 °F 86% 29.77 in 3.1 mi East 12.7 mph - N/A   Mostly Cloudy
10:00 AM 25 °F - 21 °F 78% 29.80 in 3 mi East 11.2 mph - -   Mist
10:25 AM 24.8 °F 13.4 °F 21.2 °F 86% 29.77 in 3.1 mi East 12.7 mph - N/A   Mostly Cloudy
10:55 AM 26.6 °F 15.7 °F 21.2 °F 80% 29.77 in 3.7 mi East 12.7 mph - N/A   Mostly Cloudy
11:00 AM 27 °F - 22 °F 75% 29.80 in 4 mi East 11.2 mph - -   Mist
11:25 AM 26.6 °F 15.7 °F 23.0 °F 86% 29.77 in 3.7 mi East 12.7 mph - N/A   Partly Cloudy
11:55 AM 28.4 °F 18.5 °F 23.0 °F 80% 29.77 in 3.7 mi East 11.5 mph - N/A   Overcast
12:00 PM 28 °F - 23 °F 74% 29.78 in 4 mi East 13.4 mph - -   Mist
12:25 PM 28.4 °F 19.1 °F 23.0 °F 80% 29.77 in 3.7 mi ESE 10.4 mph - N/A   Partly Cloudy
12:55 PM 30.2 °F 21.3 °F 23.0 °F 75% 29.77 in 3.7 mi ESE 10.4 mph - N/A   Unknown
1:00 PM 30 °F - 24 °F 70% 29.79 in 4 mi East 8.9 mph - -   Mist
1:25 PM 30.2 °F 21.3 °F 24.8 °F 80% 29.77 in 3.7 mi East 10.4 mph - N/A   Unknown
1:55 PM 30.2 °F 21.3 °F 24.8 °F 80% 29.77 in 3.7 mi East 10.4 mph - N/A   Unknown
2:00 PM 31 °F - 24 °F 66% 29.78 in 4 mi East 11.2 mph - -   Light Haze
2:25 PM 30.2 °F 20.8 °F 24.8 °F 80% 29.77 in 3.7 mi East 11.5 mph - N/A   Unknown
2:55 PM 32.0 °F 23.6 °F 24.8 °F 75% 29.77 in 3.7 mi East 10.4 mph - N/A   Unknown
3:00 PM 32 °F - 25 °F 66% 29.78 in 4 mi East 8.9 mph - -   Light Haze
3:25 PM 32.0 °F 24.2 °F 24.8 °F 75% 29.77 in 3.7 mi East 9.2 mph - N/A   Unknown
3:55 PM 30.2 °F 21.9 °F 24.8 °F 80% 29.77 in 3.1 mi East 9.2 mph - N/A   Haze
4:00 PM 31 °F - 25 °F 70% 29.78 in 3 mi East 11.2 mph - -   Light Haze
4:25 PM 30.2 °F 21.3 °F 24.8 °F 80% 29.77 in 3.1 mi East 10.4 mph - N/A   Haze
4:55 PM 30.2 °F 22.6 °F 24.8 °F 80% 29.77 in 3.1 mi East 8.1 mph - N/A   Haze
5:00 PM 30 °F - 25 °F 74% 29.78 in 3 mi East 8.9 mph - -   Light Haze
5:25 PM 30.2 °F 21.9 °F 24.8 °F 80% 29.77 in 3.1 mi East 9.2 mph - N/A   Haze
5:55 PM 30.2 °F 22.6 °F 24.8 °F 80% 29.77 in 3.1 mi East 8.1 mph - N/A   Haze
6:00 PM 30 °F - 25 °F 73% 29.80 in 3 mi East 8.9 mph - -   Light Haze
6:25 PM 30.2 °F 21.3 °F 24.8 °F 80% 29.77 in 3.1 mi East 10.4 mph - N/A   Haze
6:55 PM 30.2 °F 21.3 °F 24.8 °F 80% 29.80 in 3.1 mi East 10.4 mph - N/A   Haze
7:00 PM 30 °F - 25 °F 74% 29.80 in 3 mi East 8.9 mph - -   Light Haze
7:25 PM 30.2 °F 21.9 °F 24.8 °F 80% 29.80 in 3.1 mi East 9.2 mph - N/A   Haze
7:55 PM 30.2 °F 21.3 °F 24.8 °F 80% 29.80 in 3.1 mi East 10.4 mph - N/A   Haze
8:00 PM 30 °F - 25 °F 74% 29.81 in 3 mi East 11.2 mph - -   Light Haze
8:25 PM 30.2 °F 21.9 °F 24.8 °F 80% 29.80 in 3.1 mi East 9.2 mph - N/A   Haze
8:55 PM 30.2 °F 21.3 °F 24.8 °F 80% 29.80 in 3.1 mi East 10.4 mph - N/A   Haze
9:00 PM 30 °F - 25 °F 75% 29.81 in 3 mi East 11.2 mph - -   Light Haze
9:25 PM 30.2 °F 21.3 °F 24.8 °F 80% 29.80 in 3.1 mi East 10.4 mph - N/A   Haze
9:55 PM 30.2 °F 21.9 °F 24.8 °F 80% 29.80 in 3.1 mi East 9.2 mph - N/A   Haze
10:00 PM 30 °F - 25 °F 75% 29.81 in 3 mi East 8.9 mph - -   Light Haze
10:25 PM 30.2 °F 21.9 °F 24.8 °F 80% 29.80 in 3.1 mi East 9.2 mph - N/A   Haze
10:55 PM 30.2 °F 21.9 °F 24.8 °F 80% 29.80 in 3.1 mi East 9.2 mph - N/A   Haze
11:00 PM 30 °F - 25 °F 75% 29.81 in 3 mi East 8.9 mph - -   Light Haze
11:25 PM 30.2 °F 21.9 °F 24.8 °F 80% 29.80 in 3.1 mi East 9.2 mph - N/A   Haze
11:55 PM 30.2 °F 21.9 °F 24.8 °F 80% 29.80 in - East 9.2 mph - N/A   Haze